Location: Johnson City
(36.3130°N, 82.3540°W)
Time: 07:57:35
(UTC-05:00)

OTV 5 (USA 277) - Visible Passes

Search period start: 16 January 2018 00:00
Search period end: 26 January 2018 00:00
Orbit: 404 x 417 km, 43.0° (Epoch: 07 September)

Date Brightness Start Highest point End Pass type
(mag) Time Alt. Az. Time Alt. Az. Time Alt. Az.
19 Jan ? 19:36:32 10° SSW 19:37:16 14° S 19:37:16 14° S visible
20 Jan ? 18:46:30 10° S 18:48:14 13° SE 18:48:59 13° SE visible
21 Jan ? 19:30:51 10° SW 19:33:23 43° SSW 19:33:23 43° SSW visible
22 Jan ? 18:40:03 10° SSW 18:43:08 34° SSE 18:44:58 19° E visible
22 Jan ? 20:17:12 10° W 20:17:44 14° W 20:17:44 14° W visible
23 Jan ? 19:25:58 10° WSW 19:29:15 61° NNW 19:29:15 61° NNW visible
24 Jan ? 18:34:51 10° WSW 18:38:13 90° SSE 18:40:43 17° ENE visible
24 Jan ? 20:12:49 10° WNW 20:13:29 14° WNW 20:13:29 14° WNW visible
25 Jan ? 19:21:30 10° W 19:24:37 34° NNW 19:24:54 33° N visible
